TimeEST,TemperatureF,Dew PointF,Humidity,Sea Level PressureIn,VisibilityMPH,Wind Direction,Wind SpeedMPH,Gust SpeedMPH,PrecipitationIn,Events,Conditions,WindDirDegrees,DateUTC
12:15 AM,30.0,24.6,80,30.39,10.0,Calm,Calm,-,N/A,,Clear,0,2012-12-31 05:15:00
12:35 AM,29.5,24.6,82,30.38,10.0,Calm,Calm,-,N/A,,Clear,0,2012-12-31 05:35:00
12:55 AM,29.5,24.3,81,30.38,10.0,Calm,Calm,-,N/A,,Clear,0,2012-12-31 05:55:00
1:15 AM,29.3,24.8,83,30.36,10.0,Calm,Calm,-,N/A,,Clear,0,2012-12-31 06:15:00
1:35 AM,29.8,25.3,83,30.36,10.0,Calm,Calm,-,N/A,,Clear,0,2012-12-31 06:35:00
1:55 AM,29.3,25.7,86,30.37,10.0,Calm,Calm,-,N/A,,Clear,0,2012-12-31 06:55:00
2:15 AM,28.4,25.9,90,30.37,10.0,Calm,Calm,-,N/A,,Clear,0,2012-12-31 07:15:00
2:35 AM,29.3,27.1,92,30.37,10.0,Calm,Calm,-,N/A,,Clear,0,2012-12-31 07:35:00
2:55 AM,28.9,27.5,94,30.36,10.0,Calm,Calm,-,N/A,,Clear,0,2012-12-31 07:55:00
3:15 AM,28.2,27.0,95,30.37,10.0,Calm,Calm,-,N/A,,Clear,0,2012-12-31 08:15:00
3:35 AM,27.1,26.2,96,30.38,10.0,Calm,Calm,-,N/A,,Clear,0,2012-12-31 08:35:00
3:55 AM,26.6,25.7,96,30.38,10.0,Calm,Calm,-,N/A,,Clear,0,2012-12-31 08:55:00
4:15 AM,27.1,25.7,94,30.37,10.0,Calm,Calm,-,N/A,,Clear,0,2012-12-31 09:15:00
4:35 AM,27.0,25.7,95,30.37,10.0,Calm,Calm,-,N/A,,Clear,0,2012-12-31 09:35:00
4:55 AM,26.4,25.5,96,30.38,10.0,Calm,Calm,-,N/A,,Clear,0,2012-12-31 09:55:00
5:15 AM,26.1,25.3,97,30.38,10.0,Calm,Calm,-,N/A,,Clear,0,2012-12-31 10:15:00
5:35 AM,26.4,25.5,96,30.37,10.0,Calm,Calm,-,N/A,,Clear,0,2012-12-31 10:35:00
5:55 AM,26.4,25.7,97,30.37,10.0,Calm,Calm,-,N/A,,Clear,0,2012-12-31 10:55:00
6:15 AM,26.2,25.3,96,30.37,10.0,Calm,Calm,-,N/A,,Clear,0,2012-12-31 11:15:00
6:35 AM,26.1,25.3,97,30.38,10.0,Calm,Calm,-,N/A,,Clear,0,2012-12-31 11:35:00
6:55 AM,26.6,25.7,96,30.37,10.0,Calm,Calm,-,N/A,,Clear,0,2012-12-31 11:55:00
7:15 AM,27.1,26.2,96,30.36,10.0,Calm,Calm,-,N/A,,Clear,0,2012-12-31 12:15:00
7:55 AM,28.0,27.0,96,30.38,10.0,Calm,Calm,-,N/A,,Clear,0,2012-12-31 12:55:00
8:15 AM,28.8,27.1,94,30.38,10.0,Calm,Calm,-,N/A,,Clear,0,2012-12-31 13:15:00
8:35 AM,29.7,27.3,91,30.38,10.0,Calm,Calm,-,N/A,,Clear,0,2012-12-31 13:35:00
8:55 AM,30.2,28.2,92,30.38,10.0,Calm,Calm,-,N/A,,Clear,0,2012-12-31 13:55:00
9:15 AM,31.1,28.8,91,30.38,10.0,Calm,Calm,-,N/A,,Clear,0,2012-12-31 14:15:00
9:35 AM,32.2,30.2,92,30.38,10.0,SSE,3.5,-,N/A,,Clear,160,2012-12-31 14:35:00
9:55 AM,35.4,28.4,76,30.39,10.0,SSW,3.5,-,N/A,,Clear,200,2012-12-31 14:55:00
10:15 AM,38.7,28.2,66,30.38,10.0,SSE,4.6,-,N/A,,Clear,160,2012-12-31 15:15:00
10:35 AM,39.4,27.7,63,30.37,10.0,South,4.6,-,N/A,,Clear,180,2012-12-31 15:35:00
10:55 AM,43.2,27.9,55,30.38,10.0,SSW,4.6,-,N/A,,Clear,200,2012-12-31 15:55:00
11:15 AM,44.6,26.2,49,30.35,10.0,South,3.5,-,N/A,,Clear,180,2012-12-31 16:15:00
11:35 AM,45.5,26.4,47,30.35,10.0,SSW,5.8,-,N/A,,Clear,210,2012-12-31 16:35:00
11:55 AM,47.7,26.2,43,30.32,10.0,SSW,8.1,-,N/A,,Clear,210,2012-12-31 16:55:00
12:15 PM,49.8,26.4,40,30.31,10.0,SW,8.1,-,N/A,,Clear,220,2012-12-31 17:15:00
12:35 PM,50.9,23.4,34,30.28,10.0,SSW,10.4,-,N/A,,Clear,210,2012-12-31 17:35:00
12:55 PM,52.7,24.1,33,30.27,10.0,SW,12.7,18.4,N/A,,Clear,220,2012-12-31 17:55:00
1:15 PM,53.6,20.7,28,30.26,10.0,SSW,13.8,20.7,N/A,,Clear,200,2012-12-31 18:15:00
1:35 PM,54.3,20.5,27,30.27,10.0,SSW,12.7,-,N/A,,Clear,210,2012-12-31 18:35:00
1:55 PM,54.1,20.5,27,30.25,10.0,SSW,15.0,18.4,N/A,,Clear,210,2012-12-31 18:55:00
2:15 PM,53.2,20.5,28,30.24,10.0,SSW,13.8,-,N/A,,Clear,210,2012-12-31 19:15:00
2:35 PM,54.0,21.0,28,30.24,10.0,SSW,10.4,-,N/A,,Clear,210,2012-12-31 19:35:00
2:55 PM,54.1,22.1,29,30.23,10.0,SSW,11.5,-,N/A,,Clear,210,2012-12-31 19:55:00
3:15 PM,54.0,21.7,29,30.23,10.0,SW,10.4,17.3,N/A,,Clear,220,2012-12-31 20:15:00
3:35 PM,54.7,21.9,28,30.22,10.0,SSW,9.2,-,N/A,,Clear,210,2012-12-31 20:35:00
3:55 PM,54.0,22.6,30,30.22,10.0,SSW,8.1,-,N/A,,Clear,210,2012-12-31 20:55:00
4:15 PM,53.2,22.3,30,30.22,10.0,SSW,5.8,-,N/A,,Clear,200,2012-12-31 21:15:00
4:35 PM,52.9,23.4,32,30.20,10.0,South,8.1,-,N/A,,Clear,190,2012-12-31 21:35:00
4:55 PM,51.6,25.0,36,30.20,10.0,South,5.8,-,N/A,,Clear,190,2012-12-31 21:55:00
5:15 PM,50.0,26.1,39,30.19,10.0,South,5.8,-,N/A,,Clear,190,2012-12-31 22:15:00
5:35 PM,48.7,26.1,41,30.20,10.0,South,5.8,-,N/A,,Clear,190,2012-12-31 22:35:00
5:55 PM,48.4,24.3,39,30.20,10.0,Calm,Calm,-,N/A,,Clear,0,2012-12-31 22:55:00
6:15 PM,47.5,24.8,41,30.21,10.0,South,3.5,-,N/A,,Mostly Cloudy,190,2012-12-31 23:15:00
6:35 PM,48.7,24.6,39,30.22,10.0,Calm,Calm,-,N/A,,Overcast,0,2012-12-31 23:35:00
7:15 PM,48.7,23.5,37,30.20,10.0,SSW,3.5,-,N/A,,Overcast,200,2013-01-01 00:15:00
7:35 PM,47.7,27.0,45,30.19,10.0,Calm,Calm,-,N/A,,Overcast,0,2013-01-01 00:35:00
7:55 PM,48.2,24.3,39,30.19,10.0,Calm,Calm,-,N/A,,Overcast,0,2013-01-01 00:55:00
8:15 PM,46.6,30.2,53,30.18,10.0,South,4.6,-,N/A,,Overcast,170,2013-01-01 01:15:00
8:35 PM,46.8,28.4,49,30.19,10.0,Calm,Calm,-,N/A,,Overcast,0,2013-01-01 01:35:00
8:55 PM,46.9,27.3,46,30.18,10.0,Calm,Calm,-,N/A,,Overcast,0,2013-01-01 01:55:00
9:15 PM,46.9,26.6,45,30.17,10.0,Calm,Calm,-,N/A,,Scattered Clouds,0,2013-01-01 02:15:00
9:35 PM,46.6,27.0,46,30.17,10.0,Calm,Calm,-,N/A,,Clear,0,2013-01-01 02:35:00
10:15 PM,44.8,30.2,57,30.15,10.0,South,4.6,-,N/A,,Clear,190,2013-01-01 03:15:00
10:35 PM,46.6,30.7,54,30.16,10.0,Calm,Calm,-,N/A,,Clear,0,2013-01-01 03:35:00
10:55 PM,46.4,31.5,56,30.16,10.0,Calm,Calm,-,N/A,,Clear,0,2013-01-01 03:55:00
11:15 PM,43.3,33.3,68,30.15,10.0,South,3.5,-,N/A,,Clear,190,2013-01-01 04:15:00
11:35 PM,44.6,32.2,62,30.15,10.0,Calm,Calm,-,N/A,,Clear,0,2013-01-01 04:35:00
11:55 PM,44.4,34.3,68,30.14,10.0,SSW,3.5,-,N/A,,Clear,200,2013-01-01 04:55:00